This is the latest recevied weather packets stored in our database for station/object OE3MHU-13. If no packets are shown the sender has not sent any weather packets the latest 10 day(s).
| Time | Temp. | Humidity | Pressure | Rain* | Wind** | Luminosity | Snow |
|---|---|---|---|---|---|---|---|
| 1787605157 | 20.56° C | 56% | 1019.7 hPa | 0 mm | - | - | - |
| 1787604851 | 20.56° C | 57% | 1019.8 hPa | 0 mm | - | - | - |
| 1787604545 | 20.56° C | 54% | 1019.6 hPa | 0 mm | - | - | - |
| 1787604239 | 21.11° C | 56% | 1019.7 hPa | 0 mm | - | - | - |
| 1787603934 | 21.11° C | 54% | 1019.6 hPa | 0 mm | - | - | - |
| 1787603627 | 20.56° C | 56% | 1019.7 hPa | 0 mm | - | - | - |
| 1787603321 | 21.11° C | 56% | 1020.1 hPa | 0 mm | - | - | - |
| 1787603014 | 21.11° C | 55% | 1019.9 hPa | 0 mm | - | - | - |
| 1787602709 | 21.11° C | 55% | 1019.9 hPa | 0 mm | - | - | - |
| 1787602404 | 20.56° C | 57% | 1019.9 hPa | 0 mm | - | - | - |
| 1787602097 | 20.56° C | 59% | 1019.9 hPa | 0 mm | - | - | - |
| 1787601790 | 20.56° C | 59% | 1019.8 hPa | 0 mm | - | - | - |
| 1787601775 | 20.56° C | 59% | 1019.7 hPa | 0 mm | - | - | - |
| 1787601180 | 20.56° C | 58% | 1019.6 hPa | 0 mm | - | - | - |
| 1787600873 | 20.56° C | 58% | 1019.5 hPa | 0 mm | - | - | - |
| 1787600567 | 20.56° C | 59% | 1019.5 hPa | 0 mm | - | - | - |
| 1787600264 | 20.56° C | 59% | 1019.5 hPa | 0 mm | - | - | - |
| 1787599954 | 20.56° C | 59% | 1019.5 hPa | 0 mm | - | - | - |
| 1787599649 | 21.11° C | 59% | 1019.4 hPa | 0 mm | - | - | - |
| 1787599343 | 21.11° C | 58% | 1019.5 hPa | 0 mm | - | - | - |
| 1787599037 | 21.67° C | 58% | 1019.5 hPa | 0 mm | - | - | - |
| 1787598734 | 21.67° C | 57% | 1019.5 hPa | 0 mm | - | - | - |
| 1787598425 | 21.67° C | 56% | 1019.5 hPa | 0 mm | - | - | - |
| 1787598119 | 21.67° C | 57% | 1019.4 hPa | 0 mm | - | - | - |
| 1787597813 | 22.22° C | 56% | 1019.6 hPa | 0 mm | - | - | - |
* Rain latest hour (hover to see other rain measurements)
** Current wind speed in m/s (hover to see current wind gust speed)